Flag for Kazakhstan Weather past 2 weeks in Qyzylorda, Kazakhstan

Now
59 °F

Clear.


Feels Like: 59 °F
Forecast: 67 / 92 °F
Wind: 1 mph from Southwest

Location: Kzyl-Orda

Current Time: Jul 25, 2014 at 5:36:16 AM

Latest Report: Jul 25, 2014 at 5:00 AM


Visibility: 10 mi

Pressure: 29.80 "Hg

Humidity: 63%

Dew point: 46 °F

Location of QyzylordaLocation

Historic Weather in Qyzylorda — Graph

°F

Qyzylorda temperature yesterday

Maximum temperature yesterday: 88 °F (at 4:00 PM)
Minimum temperature yesterday: 55 °F (at 6:00 AM)
Average temperature yesterday: 75 °F

Past Weeks' High & Low Weather Summary

 TemperatureHumidityPressure
High102 °F (Jul 10, 2:30 PM)82% (Jul 14, 6:00 AM)30.01 "Hg (Jul 14, 6:00 AM)
Low48 °F (Jul 14, 6:00 AM)9% (Jul 10, 3:00 PM)29.47 "Hg (Jul 20, 3:30 PM)
Average78 °F31%29.75 "Hg
* Reported Jul 10 4:00 AM — Jul 25 4:00 AM, Qyzylorda, Weather by CustomWeather, © 2014

Note: Actual official high and low records may vary slightly from our data, if they occured in-between our weather recording intervals... More about our weather records

Advertising

Qyzylorda weather history for previous 24 hours

 ConditionsComfort  
Time TempWeatherWind HumidityBarometerVisibility
4:00 AM
Jul 25
61 °FClear.No wind63%29.80 "Hg10 mi
3:00 AM61 °FClear.3 mph63%29.83 "Hg10 mi
2:00 AM66 °FClear.6 mph52%29.83 "Hg10 mi
1:00 AM66 °FClear.6 mph52%29.83 "Hg10 mi
12:00 AM68 °FClear.8 mph46%29.83 "Hg10 mi
11:00 PM
Jul 24
70 °FClear.8 mph43%29.83 "Hg10 mi
10:00 PM73 °FClear.6 mph36%29.83 "Hg10 mi
9:30 PM75 °FClear.6 mph34%29.83 "Hg10 mi
9:00 PM79 °FSunny.3 mph28%29.83 "Hg10 mi
8:30 PM82 °FSunny.8 mph23%29.83 "Hg10 mi
8:00 PM84 °FSunny.10 mph22%29.83 "Hg10 mi
7:30 PM86 °FSunny.13 mph20%29.80 "Hg10 mi
7:00 PM86 °FSunny.15 mph19%29.80 "Hg10 mi
6:30 PM86 °FPassing clouds.13 mph20%29.80 "HgN/A
6:00 PM88 °FPassing clouds.13 mph18%29.80 "HgN/A
5:30 PM88 °FPassing clouds.15 mph16%29.83 "HgN/A
5:00 PM88 °FPassing clouds.15 mph16%29.83 "HgN/A
4:30 PM88 °FSunny.17 mph15%29.83 "Hg10 mi
4:00 PM88 °FPassing clouds.15 mph17%29.83 "HgN/A
3:30 PM86 °FSunny.15 mph18%29.83 "Hg10 mi
3:00 PM86 °FSunny.17 mph18%29.83 "Hg10 mi
2:30 PM86 °FPassing clouds.17 mph18%29.83 "HgN/A
2:00 PM86 °FPassing clouds.17 mph18%29.83 "HgN/A
1:30 PM86 °FPassing clouds.15 mph19%29.86 "HgN/A
1:00 PM84 °FPassing clouds.13 mph19%29.86 "HgN/A
12:30 PM84 °FSunny.17 mph19%29.86 "Hg10 mi
11:30 AM82 °FPassing clouds.13 mph21%29.86 "HgN/A
11:00 AM82 °FPassing clouds.8 mph21%29.86 "HgN/A
10:30 AM79 °FSunny.8 mph26%29.86 "Hg10 mi
10:00 AM77 °FSunny.6 mph30%29.86 "Hg10 mi
9:30 AM73 °FPassing clouds.6 mph33%29.86 "HgN/A
9:00 AM70 °FSunny.3 mph38%29.86 "Hg10 mi
8:30 AM66 °FSunny.6 mph37%29.83 "Hg10 mi
8:00 AM63 °FSunny.6 mph39%29.83 "Hg10 mi
7:30 AM61 °FSunny.6 mph39%29.83 "Hg10 mi
6:30 AM57 °FSunny.3 mph44%29.83 "Hg10 mi
6:00 AM55 °FClear.3 mph47%29.80 "Hg10 mi
5:30 AM57 °FClear.3 mph44%29.80 "Hg10 mi
5:00 AM57 °FClear.6 mph44%29.80 "Hg10 mi
Weather by CustomWeather, © 2014

See weather overviewHow to use our weather pages